EW1994 Weather Reports


Display with metric or nautical units.
time (UTC)temp
F
wind
direction
speed
MPH
gust
MPH
rain 1hr
in
rain 24hr
in
rain mn
in
humidity
%
barometer
mb
20260902064517 59 146 0.0 0.0 0.00 0.00 0.00 90 1010.5
20260902063026 59 170 0.0 1.0 0.00 0.00 0.00 91 1010.5
20260902061546 59 294 0.0 0.0 0.00 0.00 0.00 91 1010.4
20260902060006 59 294 0.0 0.0 0.00 0.00 0.00 91 1010.5
20260902054517 58 294 0.0 0.0 0.00 0.00 0.00 90 1010.6
20260902053027 59 294 0.0 0.0 0.00 0.00 0.00 90 1010.8
20260902051526 59 294 0.0 0.0 0.00 0.00 0.00 90 1010.8
20260902050029 59 294 0.0 0.0 0.00 0.00 0.00 89 1010.8
20260902044510 60 294 0.0 2.0 0.00 0.00 0.00 89 1010.7
20260902043016 60 9 0.0 2.0 0.00 0.00 0.00 88 1010.8
20260902041523 61 136 0.0 2.0 0.00 0.00 0.00 85 1010.8
20260902040027 62 306 0.0 1.0 0.00 0.00 0.00 84 1010.8
20260902034537 62 307 0.0 0.0 0.00 0.00 0.00 83 1010.7
20260902033014 62 307 0.0 1.0 0.00 0.00 0.00 82 1010.6
20260902031518 62 315 0.0 0.0 0.00 0.00 0.00 82 1010.4
20260902030025 63 315 0.0 1.0 0.00 0.00 0.00 81 1010.3
20260902024532 63 9 0.0 2.0 0.00 0.00 0.00 80 1010.3
20260902023031 63 342 0.0 0.0 0.00 0.00 0.00 80 1010.3
20260902021513 64 323 0.0 2.0 0.00 0.00 0.00 79 1010.2
20260902020021 64 332 0.0 2.0 0.00 0.00 0.00 77 1010.2
20260902014527 64 85 0.0 4.0 0.00 0.00 0.00 76 1010.3
20260902013032 65 158 0.0 6.0 0.00 0.00 0.00 75 1010.2
20260902011533 65 97 0.0 2.0 0.00 0.00 0.00 75 1010.2
20260902010017 65 138 0.0 3.0 0.00 0.00 0.00 75 1010.1
20260902004525 65 161 0.0 3.0 0.00 0.00 0.00 76 1010.2
20260902003033 65 128 0.0 2.0 0.00 0.00 0.00 76 1010.3
20260902001540 65 82 0.0 1.0 0.00 0.00 0.00 76 1010.1
20260902000037 65 34 0.0 3.0 0.00 0.00 0.00 76 1010.1
20260901234521 65 248 0.0 2.0 0.00 0.00 0.00 75 1010.1
20260901233027 65 277 1.0 8.0 0.00 0.00 0.00 75 1010.1
20260901231531 65 155 0.0 3.0 0.00 0.00 0.00 74 1010.2
20260901230033 65 103 0.0 1.0 0.00 0.00 0.00 76 1010.2
20260901224533 65 149 0.0 5.0 0.00 0.00 0.00 75 1010.1
20260901223024 65 149 0.0 2.0 0.00 0.00 0.00 75 1010.2
20260901221525 65 269 0.0 6.0 0.00 0.00 0.00 75 1010.2
20260901220031 66 145 0.0 4.0 0.00 0.00 0.00 75 1010.1
20260901214532 66 316 0.0 3.0 0.00 0.00 0.00 74 1010.1
20260901213032 67 55 0.0 2.0 0.00 0.00 0.00 73 1010.2
20260901211527 67 143 0.0 4.0 0.00 0.00 0.00 72 1010.2
20260901210029 66 290 0.0 4.0 0.00 0.00 0.00 74 1010.2
20260901204532 66 285 0.0 4.0 0.00 0.00 0.00 73 1010.4
20260901203037 67 51 0.0 7.0 0.00 0.00 0.00 73 1010.5
20260901201520 66 242 0.0 3.0 0.00 0.00 0.00 74 1010.5
20260901200037 65 272 0.0 7.0 0.00 0.00 0.00 75 1010.6
20260901194531 65 132 1.0 9.0 0.00 0.00 0.00 76 1010.7
20260901193034 65 150 0.0 9.0 0.00 0.00 0.00 76 1010.6
20260901191550 65 150 1.0 10.0 0.00 0.00 0.00 76 1010.6
20260901190026 64 126 1.0 8.0 0.00 0.00 0.00 77 1010.6
20260901184503 64 148 1.0 11.0 0.00 0.00 0.00 78 1010.8
20260901183003 62 252 0.0 10.0 0.00 0.00 0.00 79 1010.7
20260901181504 62 140 3.0 8.0 0.00 0.00 0.00 80 1010.7
20260901180001 62 113 1.0 9.0 0.00 0.00 0.00 81 1010.6
20260901174502 62 182 1.0 9.0 0.00 0.00 0.00 81 1010.4
20260901173004 61 146 0.0 7.0 0.00 0.00 0.00 83 1010.3
20260901171503 62 144 1.0 4.0 0.00 0.00 0.00 82 1010.4
20260901170004 61 61 0.0 3.0 0.00 0.00 0.00 85 1010.2
20260901164503 60 147 0.0 3.0 0.00 0.00 0.00 86 1010.3
20260901163006 59 217 0.0 8.0 0.00 0.00 0.00 86 1010.5
20260901161504 59 250 0.0 1.0 0.00 0.00 0.00 88 1010.6
20260901160006 58 150 0.0 7.0 0.00 0.00 0.00 89 1010.6
20260901154505 58 146 2.0 6.0 0.00 0.00 0.00 89 1010.7
20260901153001 57 159 0.0 3.0 0.00 0.00 0.00 91 1010.8
20260901151507 57 151 0.0 3.0 0.00 0.00 0.00 92 1010.6
20260901150007 56 253 0.0 5.0 0.00 0.00 0.00 93 1010.6
20260901144504 55 153 0.0 1.0 0.00 0.00 0.00 93 1010.2
20260901143006 54 157 0.0 0.0 0.00 0.00 0.00 93 1010.1
20260901141505 54 157 0.0 0.0 0.00 0.00 0.00 93 1010.1
20260901140009 54 157 0.0 0.0 0.00 0.00 0.00 93 1010.0
20260901134507 54 157 0.0 0.0 0.00 0.00 0.00 93 1009.9
20260901133009 54 157 0.0 0.0 0.00 0.00 0.00 93 1009.9
20260901131506 53 157 0.0 0.0 0.00 0.00 0.00 93 1009.7
20260901130012 53 157 0.0 2.0 0.00 0.00 0.00 93 1009.6
20260901124515 53 91 0.0 0.0 0.00 0.00 0.00 92 1009.6
20260901123009 52 91 0.0 0.0 0.00 0.00 0.00 92 1009.6
20260901121508 52 91 0.0 0.0 0.00 0.00 0.00 92 1009.4
20260901120010 52 91 0.0 0.0 0.00 0.00 0.00 92 1009.4
20260901114510 52 91 0.0 0.0 0.00 0.00 0.00 92 1009.3
20260901113010 52 91 0.0 0.0 0.00 0.00 0.00 92 1009.5
20260901111509 52 91 0.0 0.0 0.00 0.00 0.00 92 1009.5
20260901110009 52 91 0.0 0.0 0.00 0.00 0.00 91 1009.4
20260901104512 52 91 0.0 0.0 0.00 0.00 0.00 91 1009.5
20260901103010 53 91 0.0 0.0 0.00 0.00 0.00 91 1009.5
20260901101513 53 91 0.0 0.0 0.00 0.00 0.00 91 1009.5
20260901100013 53 91 0.0 0.0 0.00 0.00 0.00 91 1009.3
20260901094535 53 91 0.0 0.0 0.00 0.00 0.00 91 1009.3
20260901093033 53 91 0.0 0.0 0.00 0.00 0.00 91 1009.3
20260901091532 53 91 0.0 0.0 0.00 0.00 0.00 91 1009.4
20260901090038 54 91 0.0 0.0 0.00 0.00 0.00 91 1009.2
20260901084525 54 91 0.0 0.0 0.00 0.00 0.00 90 1009.3
20260901083030 54 91 0.0 0.0 0.00 0.00 0.00 90 1009.2
20260901081533 54 91 0.0 0.0 0.00 0.00 0.00 90 1009.2
20260901080032 55 91 0.0 0.0 0.00 0.00 0.00 90 1009.3
20260901074535 55 91 0.0 0.0 0.00 0.00 0.00 90 1009.2
20260901073029 55 91 0.0 0.0 0.00 0.00 0.00 89 1009.2
20260901071532 55 91 0.0 0.0 0.00 0.00 0.00 89 1009.2
20260901070031 56 91 0.0 0.0 0.00 0.00 0.00 89 1009.1